Location: Unspecified
(48.8656°N, 0.0000°E)
Time: 17:37:18
(UTC+00:00)

Transit 2A Rocket - All Passes

Search period start: 17 June 2019 00:00
Search period end: 27 June 2019 00:00
Orbit: 586 x 917 km, 66.7° (Epoch: 16 June)

Date Brightness Start Highest point End Pass type
(mag) Time Alt. Az. Time Alt. Az. Time Alt. Az.
17 Jun - 10:39:04 10° S 10:44:31 35° ESE 10:49:52 10° NE daylight
17 Jun - 12:21:01 10° SW 12:27:01 56° NW 12:32:49 10° NNE daylight
17 Jun - 14:06:36 10° WNW 14:10:53 20° NNW 14:15:02 10° NNE daylight
17 Jun - 15:53:23 10° NNW 15:55:50 13° N 15:58:14 10° NNE daylight
17 Jun - 17:36:48 10° NNW 17:40:47 19° NNE 17:44:31 10° ENE daylight
17 Jun - 19:19:09 10° NNW 19:24:35 62° NE 19:29:28 10° SE daylight
17 Jun - 21:02:35 10° WNW 21:06:40 23° WSW 21:10:30 10° SSW visible
18 Jun - 09:57:42 10° SSE 10:02:17 23° ESE 10:06:48 10° ENE daylight
18 Jun - 11:38:15 10° SW 11:44:23 81° NW 11:50:20 10° NE daylight
18 Jun - 13:22:59 10° W 13:27:53 25° NNW 13:32:37 10° NNE daylight
18 Jun - 15:09:56 10° NW 15:12:37 13° N 15:15:13 10° NNE daylight
18 Jun - 16:54:19 10° NNW 16:57:41 16° NNE 17:00:54 10° NE daylight
18 Jun - 18:36:40 10° NNW 18:41:53 41° NE 18:46:36 10° ESE daylight
18 Jun - 20:19:33 10° NW 20:24:28 38° WSW 20:28:56 10° S daylight
19 Jun - 09:17:10 10° SE 09:20:09 14° ESE 09:23:05 10° ENE daylight
19 Jun - 10:55:47 10° SSW 11:01:52 70° ESE 11:07:46 10° NE daylight
19 Jun - 12:39:34 10° WSW 12:44:59 32° NW 12:50:12 10° NNE daylight
19 Jun - 14:26:15 10° NW 14:29:26 15° NNW 14:32:31 10° NNE daylight
19 Jun - 16:11:43 10° NNW 16:14:32 14° NNE 16:17:14 10° NE daylight
19 Jun - 17:54:14 10° NNW 17:59:04 30° NE 18:03:29 10° E daylight
19 Jun - 19:36:49 10° NW 19:42:07 63° WSW 19:46:54 10° SSE daylight
20 Jun - 10:13:39 10° S 10:19:27 46° ESE 10:25:06 10° NE daylight
20 Jun - 11:56:22 10° WSW 12:02:11 44° NW 12:07:47 10° NNE daylight
20 Jun - 13:42:28 10° WNW 13:46:17 17° NNW 13:49:59 10° NNE daylight
20 Jun - 15:28:53 10° NNW 15:31:19 13° N 15:33:42 10° NNE daylight
20 Jun - 17:11:49 10° NNW 17:16:07 22° NNE 17:20:08 10° E daylight
20 Jun - 18:54:13 10° NW 18:59:39 82° NE 19:04:31 10° SE daylight
20 Jun - 20:38:14 10° WNW 20:41:25 17° WSW 20:44:27 10° SW daylight
21 Jun - 09:31:56 10° S 09:37:08 30° ESE 09:42:14 10° NE daylight
21 Jun - 11:13:25 10° SW 11:19:30 63° NW 11:25:20 10° NNE daylight
21 Jun - 12:58:46 10° WNW 13:03:14 21° NNW 13:07:32 10° NNE daylight
21 Jun - 14:45:41 10° NNW 14:48:06 13° N 14:50:28 10° NNE daylight
21 Jun - 16:29:23 10° NNW 16:33:05 18° NNE 16:36:36 10° ENE daylight
21 Jun - 18:11:42 10° NNW 18:17:02 53° NE 18:21:50 10° SE daylight
21 Jun - 19:54:54 10° NW 19:59:17 27° WSW 20:03:20 10° SSW daylight
22 Jun - 08:50:46 10° SSE 08:54:55 19° ESE 08:59:00 10° ENE daylight
22 Jun - 10:30:46 10° SSW 10:36:54 89° SE 10:42:50 10° NE daylight
22 Jun - 12:15:12 10° W 12:20:16 27° NW 12:25:07 10° NNE daylight
22 Jun - 14:02:08 10° NW 14:04:54 13° N 14:07:35 10° NNE daylight
22 Jun - 15:46:53 10° NNW 15:49:58 15° NNE 15:52:58 10° NE daylight
22 Jun - 17:29:14 10° NNW 17:34:17 36° NE 17:38:53 10° ESE daylight
22 Jun - 19:12:00 10° NW 19:17:02 45° WSW 19:21:35 10° S daylight
23 Jun - 08:10:54 10° ESE 08:12:49 12° E 08:14:44 10° E daylight
23 Jun - 09:48:24 10° SSW 09:54:25 61° ESE 10:00:14 10° NE daylight
23 Jun - 11:31:51 10° WSW 11:37:24 36° NW 11:42:43 10° NNE daylight
23 Jun - 13:18:23 10° NW 13:21:43 15° NNW 13:24:58 10° NNE daylight
23 Jun - 15:04:13 10° NNW 15:06:49 13° N 15:09:18 10° NE daylight
23 Jun - 16:46:49 10° NNW 16:51:25 26° NE 16:55:40 10° E daylight
23 Jun - 18:29:18 10° NW 18:34:39 75° WSW 18:39:26 10° SSE daylight
23 Jun - 20:14:37 10° W 20:16:07 11° W 20:17:34 10° WSW daylight
24 Jun - 09:06:25 10° S 09:12:01 40° ESE 09:17:30 10° NE daylight
24 Jun - 10:48:44 10° WSW 10:54:38 50° NW 11:00:18 10° NNE daylight
24 Jun - 12:34:36 10° WNW 12:38:37 18° NNW 12:42:29 10° NNE daylight
24 Jun - 14:21:16 10° NNW 14:23:35 12° N 14:25:50 10° NNE daylight
24 Jun - 16:04:24 10° NNW 16:08:27 20° NNE 16:12:15 10° ENE daylight
24 Jun - 17:46:44 10° NNW 17:52:07 70° NE 17:56:56 10° SE daylight
24 Jun - 19:30:25 10° WNW 19:34:03 20° WSW 19:37:28 10° SSW daylight
25 Jun - 08:24:51 10° SSE 08:29:45 26° ESE 08:34:32 10° NE daylight
25 Jun - 10:05:53 10° SW 10:11:59 72° NW 10:17:50 10° NNE daylight
25 Jun - 11:50:56 10° W 11:55:35 23° NNW 12:00:03 10° NNE daylight
25 Jun - 13:37:57 10° NNW 13:40:22 13° N 13:42:44 10° NNE daylight
25 Jun - 15:21:57 10° NNW 15:25:24 16° NNE 15:28:40 10° ENE daylight
25 Jun - 17:04:15 10° NNW 17:09:27 46° NE 17:14:10 10° ESE daylight
25 Jun - 18:47:16 10° NW 18:51:52 32° WSW 18:56:06 10° S daylight
26 Jun - 07:43:58 10° SE 07:47:35 16° ESE 07:51:07 10° ENE daylight
26 Jun - 09:23:19 10° SSW 09:29:25 79° ESE 09:35:18 10° NE daylight
26 Jun - 11:07:26 10° W 11:12:39 29° NW 11:17:40 10° NNE daylight
26 Jun - 12:54:17 10° NW 12:57:10 14° NNW 12:59:58 10° NNE daylight
26 Jun - 14:39:25 10° NNW 14:42:16 14° NNE 14:44:59 10° NE daylight
26 Jun - 16:21:48 10° NNW 16:26:40 32° NE 16:31:07 10° ESE daylight
26 Jun - 18:04:27 10° NW 18:09:35 53° WSW 18:14:12 10° SSE daylight
